Weather History for KAXN - September, 2014

Change the Weather History Date:

Thursday, September 18, 2014

  Actual Average Record
Temperature  
Mean Temperature 60 °F -  
Max Temperature 73 °F 68 °F 89 °F (1998)
Min Temperature 46 °F 48 °F 35 °F (1959)
Degree Days  
Heating Degree Days 6    
Growing Degree Days 10 (Base 50)    
Moisture  
Dew Point 51 °F    
Average Humidity 83    
Maximum Humidity 100    
Minimum Humidity 55    
Precipitation  
Precipitation 0.00 in - - ()
Sea Level Pressure  
Sea Level Pressure 30.02 in    
Wind  
Wind Speed 11 mph (SE)    
Max Wind Speed 16 mph    
Max Gust Speed 25 mph    
Visibility 7 miles    
Events Fog    
Averages and records for this station are not official NWS values.
T = Trace of Precipitation, MM = Missing Value Source: NWS Daily Summary

Daily Weather History Graph

Daily Weather History Graph

Search for Another Location

Airport or City:

Trip Planner

Search our weather history database for the weather conditions in past years. The results will help you decide how hot, cold, wet, or windy it might be!

Date:

Astronomy

Sep. 18, 2014 Rise Set
Actual Time 7:03 AM CDT 7:26 PM CDT
Civil Twilight 6:33 AM CDT 7:56 PM CDT
Nautical Twilight 5:58 AM CDT 8:31 PM CDT
Astronomical Twilight 5:21 AM CDT 9:08 PM CDT
Moon 1:44 AM CDT (9/18) 4:30 PM CDT (9/18)
Length of Visible Light 13h 23m
Length of Day
12h 23m
Waning Crescent, 26% of the Moon is Illuminated
Sep 18
Waning Crescent
Sep 24
New
Oct 1
First Quarter
Oct 8
Full
Oct 15
Last Quarter

Hourly Weather History & Observations

Time (CDT) Temp. Dew Point Humidity Pressure Visibility Wind Dir Wind Speed Gust Speed Precip Events Conditions
12:53 AM 55.0 °F 50.0 °F 83% 30.04 in 10.0 mi East 9.2 mph - N/A   Clear
1:53 AM 52.0 °F 50.0 °F 93% 30.05 in 10.0 mi East 11.5 mph - N/A   Clear
2:07 AM 52.0 °F 50.0 °F 93% 30.05 in 10.0 mi East 10.4 mph - N/A   Scattered Clouds
2:16 AM 51.1 °F 50.0 °F 96% 30.05 in 10.0 mi East 10.4 mph - N/A   Mostly Cloudy
2:53 AM 50.0 °F 50.0 °F 100% 30.06 in 1.5 mi East 12.7 mph - N/A   Overcast
3:06 AM 50.0 °F 48.9 °F 96% 30.05 in 0.2 mi East 11.5 mph - N/A Fog Fog
4:53 AM 48.0 °F 46.9 °F 96% 30.06 in 0.5 mi East 10.4 mph - N/A Fog Fog
5:53 AM 48.0 °F 46.9 °F 96% 30.07 in 0.5 mi East 10.4 mph - N/A Fog Fog
6:53 AM 48.0 °F 46.9 °F 96% 30.07 in 0.5 mi East 10.4 mph - N/A Fog Fog
7:53 AM 46.9 °F 46.9 °F 100% 30.08 in 0.2 mi ESE 9.2 mph - N/A Fog Fog
8:53 AM 48.0 °F 46.9 °F 96% 30.09 in 0.2 mi ESE 9.2 mph - N/A Fog Fog
9:53 AM 48.0 °F 48.0 °F 100% 30.09 in 0.5 mi ESE 10.4 mph - N/A Fog Fog
10:31 AM 48.0 °F 48.0 °F 100% 30.07 in 1.0 mi SE 10.4 mph - N/A   Mist
10:36 AM 48.9 °F 48.0 °F 97% 30.07 in 2.0 mi SE 11.5 mph - N/A   Overcast
10:45 AM 48.9 °F 48.0 °F 97% 30.07 in 4.0 mi SE 10.4 mph - N/A   Overcast
10:53 AM 48.9 °F 48.0 °F 97% 30.09 in 4.0 mi SE 11.5 mph - N/A   Overcast
11:53 AM 51.1 °F 48.9 °F 92% 30.08 in 10.0 mi SE 11.5 mph - N/A   Overcast
12:16 PM 54.0 °F 50.0 °F 86% 30.06 in 10.0 mi SE 10.4 mph - N/A   Overcast
12:36 PM 57.9 °F 51.1 °F 78% 30.06 in 10.0 mi ESE 9.2 mph - N/A   Mostly Cloudy
12:53 PM 57.9 °F 52.0 °F 81% 30.06 in 10.0 mi ESE 10.4 mph - N/A   Scattered Clouds
1:53 PM 66.0 °F 55.0 °F 68% 30.03 in 10.0 mi SSE 11.5 mph - N/A   Clear
2:53 PM 70.0 °F 55.0 °F 59% 30.00 in 10.0 mi South 13.8 mph - N/A   Scattered Clouds
3:53 PM 72.0 °F 57.0 °F 59% 29.97 in 10.0 mi South 12.7 mph - N/A   Clear
4:53 PM 73.0 °F 55.9 °F 55% 29.95 in 10.0 mi South 16.1 mph 25.3 mph N/A   Partly Cloudy
5:53 PM 72.0 °F 55.0 °F 55% 29.94 in 10.0 mi South 15.0 mph - N/A   Clear
6:53 PM 69.1 °F 55.9 °F 63% 29.94 in 10.0 mi SSE 10.4 mph - N/A   Clear
7:53 PM 64.0 °F 54.0 °F 70% 29.93 in 10.0 mi SSE 9.2 mph - N/A   Clear
8:53 PM 63.0 °F 52.0 °F 67% 29.92 in 10.0 mi SSE 13.8 mph - N/A   Clear
9:53 PM 63.0 °F 51.1 °F 65% 29.92 in 10.0 mi SSE 15.0 mph - N/A   Clear
10:53 PM 62.1 °F 51.1 °F 67% 29.92 in 10.0 mi SSE 12.7 mph - N/A   Clear
11:53 PM 62.1 °F 50.0 °F 65% 29.90 in 10.0 mi South 16.1 mph - N/A   Clear